Showing default

GEESAT 2-05, 58909

Orbit data source: Space-Track

GEESAT 2-05, 58909 is a payload satellite owned by GeeSpace (CN) in LEO that was launched on Fri, 02 Feb 2024 UTC via a CHANG ZHENG 2C launch vehicle from the Xichang Space Center, China (XSC). Payload-class satellites include a variety of spacecraft equipped with specific instruments for various scientific and technological missions. These include communications satellites like Starlink; space stations such as the ISS; scientific satellites like the Hubble; Earth observation satellites from companies like Planet Labs, Umbra, and HawkEye 360; GPS; miniature CubeSats for education and research; and military/defense satellites.

Loading next visibility...
Identifier
58909, 2024-023E
Orbit
LEO
Last TLE update
7 hours ago
Origin
Manufacturer
Taizhou Xingkong
Mission
Operational Commercial Navigation
Bus & Motor
GEESAT1, Unknown motor
Mass
130 kg wet, 130 kg dry
Launch date (UTC)
2024-02-02 (1 year ago)
Launch vehicle
CHANG ZHENG 2C
Launch site
Xichang Space Center, China (XSC)
Object type
Payload
Rocket body
Debris
Shape & HBR
Box + 2 Pan, 2 m
Radar Cross Section
0.833 m², Medium (>0.1 m² and < 1m²)

Expand to show TLE details & history

TLE from 7 hours ago
0 GEESAT 2-05
1 58909U 24023E   25184.22122476  .00002221  00000-0  23244-3 0  9993
2 58909  50.0029 176.6289 0006953 265.0200  94.9949 14.93385560 77031
Epoch: 2025-07-03T05:18Z
TLE epoch observation values (Epoch: 2025-07-03T05:18:33.819Z)
Latitude
0.00001°
Longitude
175.49691°
Altitude
588.36 km
Speed
7.567 km/s
True Right ascension
11h 46m 30s
True Declination
0° 00' 00"
Sunlit
Object was in daylight at epoch
Visualization orbit readout
Latitude
48.52448°
Longitude
-76.58383°
Altitude
597.187 km
Speed
7.565 km/s
Apparent Right ascension
15h 19m 38s
Apparent Declination
11° 02' 37"
Sunlit
Object is in daylight
Visualization observer readout
Local Sidereal Time
23:58:05
Azimuth
305.955° NW
Elevation
-20.918°
Doppler factor
1
Orbital elements
Apogee altitude
592.993 km
Perigee altitude
583.306 km
Semi-major axis
6,966.286 km
Eccentricity
0.0007
Inclination
50.0029°
RAAN
176.6289°
Arg. of periapsis
265.02°
True anomaly
Unknown
Mean anomaly
94.9949°
Eccentric anomaly
Unknown
Mean motion
3.73286 °/min
Orbital period
96.44 mins
BSTAR
0.00023244
Loading maneuver chart data...
Loading SW <> Apogee altitude chart data...
Loading historical data...
Loading historical data...
Loading historical data...
Loading historical data...
Loading historical data...
Loading historical data...
Loading historical data...

GEESAT 2-05 Visibility forecast

Observer location: undefined°, undefined°

Span
Click to sort rows by Start time (UTC) header in descending order
Start Az.
Max El. time (UTC)
Max El. Az.
Max El.
End time (UTC)
End Az.
6 mins2025-07-04 02:23:27.702Z223.364° SW2025-07-04 02:25:27.702Z186.433° SSW42.888°2025-07-04 02:29:27.702Z59.65° ENE
6 mins2025-07-04 04:04:27.702Z291.828° WNW2025-07-04 04:06:27.702Z330.781° NNW26.676°2025-07-04 04:10:27.702Z42.523° NE
5 mins2025-07-04 05:46:27.702Z325.431° NNW2025-07-04 05:48:27.702Z0.524° NNE20.162°2025-07-04 05:51:27.702Z48.825° ENE
6 mins2025-07-04 07:27:27.702Z324.185° NNW2025-07-04 07:30:27.702Z33.196° NE30.762°2025-07-04 07:33:27.702Z86.554° E
6 mins2025-07-04 09:08:27.702Z287.078° WNW2025-07-04 09:11:27.702Z195.975° SSW36.655°2025-07-04 09:14:27.702Z147.702° SSE
|